| time (UTC) | temp C | wind direction | speed KPH | gust KPH | rain 1hr cm | rain 24hr cm | rain mn cm | humidity % | barometer mb |
| 20260507205239 | 18 | 231 | 1.6 | 4.8 | 0.00 | 0.18 | 0.18 | 48 | 998.1 |
| 20260507204732 | 18 | 234 | 1.6 | 4.8 | 0.00 | 0.18 | 0.18 | 47 | 998.1 |
| 20260507204226 | 18 | 313 | 1.6 | 3.2 | 0.00 | 0.18 | 0.18 | 45 | 998.1 |
| 20260507203722 | 18 | 336 | 1.6 | 3.2 | 0.00 | 0.18 | 0.18 | 43 | 998.2 |
| 20260507203215 | 18 | 263 | 1.6 | 4.8 | 0.00 | 0.18 | 0.18 | 45 | 998.2 |
| 20260507202709 | 18 | 220 | 1.6 | 4.8 | 0.00 | 0.18 | 0.18 | 42 | 998.1 |
| 20260507202433 | 18 | 211 | 3.2 | 9.7 | 0.00 | 0.18 | 0.18 | 49 | 998.2 |
| 20260507201657 | 18 | 211 | 3.2 | 9.7 | 0.00 | 0.18 | 0.18 | 44 | 998.2 |
| 20260507201151 | 18 | 211 | 3.2 | 8.0 | 0.00 | 0.18 | 0.18 | 48 | 998.2 |
| 20260507200647 | 18 | 212 | 3.2 | 8.0 | 0.00 | 0.18 | 0.18 | 43 | 998.3 |
| 20260507200140 | 18 | 213 | 3.2 | 8.0 | 0.00 | 0.18 | 0.18 | 47 | 998.2 |
| 20260507195634 | 18 | 355 | 3.2 | 9.7 | 0.00 | 0.18 | 0.18 | 44 | 998.3 |
| 20260507195129 | 18 | 213 | 1.6 | 9.7 | 0.00 | 0.18 | 0.18 | 42 | 998.3 |
| 20260507194622 | 18 | 200 | 1.6 | 8.0 | 0.00 | 0.18 | 0.18 | 46 | 998.3 |
| 20260507194347 | 18 | 24 | 3.2 | 6.4 | 0.00 | 0.18 | 0.18 | 42 | 998.4 |
| 20260507193610 | 18 | 30 | 1.6 | 6.4 | 0.00 | 0.18 | 0.18 | 41 | 998.4 |
| 20260507193104 | 18 | 63 | 1.6 | 6.4 | 0.00 | 0.18 | 0.18 | 41 | 998.7 |
| 20260507192557 | 18 | 27 | 1.6 | 4.8 | 0.00 | 0.18 | 0.18 | 46 | 998.8 |
| 20260507192052 | 18 | 29 | 1.6 | 6.4 | 0.00 | 0.18 | 0.18 | 48 | 998.9 |
| 20260507191546 | 18 | 349 | 3.2 | 11.3 | 0.00 | 0.18 | 0.18 | 48 | 998.9 |
| 20260507191040 | 18 | 226 | 3.2 | 11.3 | 0.00 | 0.18 | 0.18 | 44 | 998.9 |
| 20260507190534 | 18 | 216 | 3.2 | 8.0 | 0.00 | 0.18 | 0.18 | 49 | 999.0 |
| 20260507190029 | 18 | 216 | 3.2 | 9.7 | 0.00 | 0.18 | 0.18 | 48 | 999.2 |
| 20260507185529 | 17 | 216 | 3.2 | 9.7 | 0.00 | 0.18 | 0.18 | 48 | 999.0 |
| 20260507185029 | 17 | 204 | 3.2 | 9.7 | 0.00 | 0.18 | 0.18 | 46 | 999.0 |
| 20260507184531 | 17 | 217 | 3.2 | 9.7 | 0.00 | 0.18 | 0.18 | 47 | 999.1 |
| 20260507184030 | 17 | 219 | 3.2 | 9.7 | 0.00 | 0.18 | 0.18 | 51 | 999.1 |
| 20260507183529 | 17 | 228 | 3.2 | 9.7 | 0.00 | 0.18 | 0.18 | 51 | 999.2 |
| 20260507183029 | 16 | 200 | 1.6 | 6.4 | 0.00 | 0.18 | 0.18 | 51 | 999.2 |
| 20260507182529 | 16 | 207 | 1.6 | 8.0 | 0.00 | 0.18 | 0.18 | 54 | 999.3 |
| 20260507182030 | 16 | 207 | 1.6 | 8.0 | 0.00 | 0.18 | 0.18 | 54 | 999.4 |
| 20260507181524 | 16 | 94 | 1.6 | 6.4 | 0.00 | 0.18 | 0.18 | 54 | 999.5 |
| 20260507181026 | 16 | 92 | 1.6 | 6.4 | 0.00 | 0.18 | 0.18 | 53 | 999.6 |
| 20260507180525 | 16 | 49 | 1.6 | 4.8 | 0.00 | 0.18 | 0.18 | 53 | 999.6 |
| 20260507180025 | 16 | 46 | 1.6 | 4.8 | 0.00 | 0.18 | 0.18 | 54 | 999.8 |
| 20260507175525 | 16 | 31 | 3.2 | 4.8 | 0.00 | 0.18 | 0.18 | 56 | 999.8 |
| 20260507175024 | 16 | 130 | 3.2 | 6.4 | 0.00 | 0.18 | 0.18 | 55 | 999.8 |
| 20260507174525 | 16 | 247 | 1.6 | 6.4 | 0.00 | 0.18 | 0.18 | 58 | 999.9 |
| 20260507174024 | 15 | 101 | 1.6 | 6.4 | 0.00 | 0.18 | 0.18 | 54 | 1000.0 |
| 20260507173757 | 15 | 132 | 1.6 | 4.8 | 0.00 | 0.18 | 0.18 | 57 | 1000.1 |
| 20260507173018 | 15 | 101 | 1.6 | 6.4 | 0.00 | 0.18 | 0.18 | 57 | 1000.3 |
| 20260507172512 | 15 | 100 | 1.6 | 6.4 | 0.00 | 0.18 | 0.18 | 61 | 1000.4 |
| 20260507172007 | 15 | 138 | 1.6 | 6.4 | 0.00 | 0.18 | 0.18 | 62 | 1000.5 |
| 20260507171502 | 15 | 138 | 1.6 | 6.4 | 0.00 | 0.18 | 0.18 | 58 | 1000.6 |
| 20260507170954 | 14 | 138 | 3.2 | 6.4 | 0.00 | 0.18 | 0.18 | 54 | 1000.8 |
| 20260507170449 | 14 | 59 | 3.2 | 6.4 | 0.00 | 0.18 | 0.18 | 56 | 1000.7 |
| 20260507170213 | 14 | 84 | 3.2 | 6.4 | 0.00 | 0.18 | 0.18 | 55 | 1000.8 |
| 20260507165707 | 14 | 74 | 1.6 | 4.8 | 0.00 | 0.18 | 0.18 | 54 | 1001.0 |
| 20260507164931 | 13 | 68 | 1.6 | 4.8 | 0.00 | 0.18 | 0.18 | 61 | 1001.0 |
| 20260507164424 | 13 | 68 | 1.6 | 4.8 | 0.00 | 0.18 | 0.18 | 56 | 1001.0 |
| 20260507163920 | 13 | 12 | 1.6 | 3.2 | 0.00 | 0.18 | 0.18 | 57 | 1001.0 |
| 20260507163915 | 13 | 12 | 1.6 | 4.8 | 0.00 | 0.18 | 0.18 | 57 | 1001.2 |
| 20260507162908 | 13 | 12 | 0.0 | 4.8 | 0.00 | 0.18 | 0.18 | 57 | 1001.3 |
| 20260507162631 | 13 | 84 | 0.0 | 0.0 | 0.00 | 0.18 | 0.18 | 55 | 1001.3 |
| 20260507161854 | 13 | 84 | 0.0 | 3.2 | 0.00 | 0.18 | 0.18 | 56 | 1001.4 |
| 20260507161620 | 13 | 84 | 1.6 | 6.4 | 0.00 | 0.18 | 0.18 | 59 | 1001.5 |
| 20260507160843 | 13 | 84 | 3.2 | 6.4 | 0.00 | 0.18 | 0.18 | 60 | 1001.5 |
| 20260507160607 | 12 | 22 | 1.6 | 4.8 | 0.00 | 0.18 | 0.18 | 60 | 1001.6 |
| 20260507155831 | 12 | 22 | 1.6 | 4.8 | 0.00 | 0.18 | 0.18 | 60 | 1001.7 |
| 20260507155326 | 12 | 22 | 1.6 | 4.8 | 0.00 | 0.18 | 0.18 | 62 | 1001.6 |
| 20260507154818 | 12 | 22 | 0.0 | 4.8 | 0.00 | 0.18 | 0.18 | 62 | 1001.7 |
| 20260507154312 | 12 | 347 | 0.0 | 4.8 | 0.00 | 0.18 | 0.18 | 64 | 1001.8 |
| 20260507153807 | 12 | 16 | 1.6 | 4.8 | 0.00 | 0.18 | 0.18 | 64 | 1001.7 |
| 20260507153301 | 12 | 16 | 1.6 | 4.8 | 0.00 | 0.18 | 0.18 | 61 | 1001.9 |
| 20260507152756 | 12 | 16 | 1.6 | 4.8 | 0.00 | 0.18 | 0.18 | 63 | 1001.9 |
| 20260507152248 | 12 | 16 | 0.0 | 4.8 | 0.00 | 0.18 | 0.18 | 68 | 1001.9 |
| 20260507151742 | 12 | 79 | 0.0 | 1.6 | 0.00 | 0.18 | 0.18 | 68 | 1001.9 |
| 20260507151236 | 12 | 79 | 1.6 | 4.8 | 0.00 | 0.20 | 0.18 | 70 | 1001.9 |
| 20260507150731 | 12 | 79 | 1.6 | 4.8 | 0.00 | 0.20 | 0.18 | 71 | 1002.0 |
| 20260507150225 | 11 | 80 | 1.6 | 4.8 | 0.00 | 0.20 | 0.18 | 73 | 1002.0 |
| 20260507145719 | 11 | 321 | 0.0 | 3.2 | 0.00 | 0.23 | 0.18 | 74 | 1002.1 |
| 20260507145212 | 11 | 321 | 0.0 | 3.2 | 0.00 | 0.23 | 0.18 | 77 | 1002.2 |
| 20260507144940 | 11 | 321 | 0.0 | 3.2 | 0.00 | 0.23 | 0.18 | 77 | 1002.3 |
| 20260507144202 | 11 | 321 | 0.0 | 3.2 | 0.00 | 0.25 | 0.18 | 77 | 1002.2 |
| 20260507143655 | 11 | 319 | 0.0 | 0.0 | 0.00 | 0.25 | 0.18 | 79 | 1002.2 |
| 20260507143148 | 10 | 319 | 0.0 | 0.0 | 0.00 | 0.25 | 0.18 | 82 | 1002.3 |
| 20260507142643 | 10 | 319 | 0.0 | 0.0 | 0.00 | 0.25 | 0.18 | 84 | 1002.5 |
| 20260507142136 | 10 | 319 | 0.0 | 0.0 | 0.00 | 0.25 | 0.18 | 86 | 1002.4 |
| 20260507141902 | 10 | 319 | 0.0 | 0.0 | 0.00 | 0.25 | 0.18 | 83 | 1002.4 |
| 20260507141126 | 10 | 319 | 0.0 | 0.0 | 0.00 | 0.28 | 0.18 | 81 | 1002.4 |
| 20260507140619 | 10 | 319 | 0.0 | 0.0 | 0.00 | 0.28 | 0.18 | 83 | 1002.5 |
| 20260507140114 | 10 | 319 | 0.0 | 0.0 | 0.00 | 0.30 | 0.18 | 85 | 1002.6 |
| 20260507135606 | 10 | 319 | 0.0 | 0.0 | 0.00 | 0.33 | 0.18 | 85 | 1002.6 |
| 20260507135101 | 10 | 319 | 0.0 | 0.0 | 0.00 | 0.36 | 0.18 | 82 | 1002.7 |
| 20260507134827 | 10 | 319 | 0.0 | 0.0 | 0.00 | 0.36 | 0.18 | 86 | 1002.7 |
| 20260507134049 | 10 | 319 | 0.0 | 0.0 | 0.00 | 0.38 | 0.18 | 85 | 1002.7 |
| 20260507133813 | 10 | 319 | 0.0 | 1.6 | 0.00 | 0.41 | 0.18 | 89 | 1002.6 |
| 20260507133038 | 10 | 319 | 0.0 | 3.2 | 0.00 | 0.43 | 0.18 | 88 | 1002.6 |
| 20260507132531 | 10 | 319 | 0.0 | 3.2 | 0.00 | 0.46 | 0.18 | 90 | 1002.8 |
| 20260507132025 | 10 | 319 | 0.0 | 0.0 | 0.00 | 0.51 | 0.18 | 89 | 1002.7 |
| 20260507131526 | 10 | 319 | 0.0 | 1.6 | 0.00 | 0.56 | 0.18 | 90 | 1002.7 |
| 20260507131023 | 10 | 319 | 0.0 | 1.6 | 0.00 | 0.58 | 0.18 | 89 | 1002.6 |
| 20260507130520 | 10 | 319 | 0.0 | 0.0 | 0.00 | 0.58 | 0.18 | 90 | 1002.6 |
| 20260507130018 | 10 | 319 | 0.0 | 0.0 | 0.00 | 0.58 | 0.18 | 92 | 1002.6 |
| 20260507125515 | 10 | 319 | 0.0 | 0.0 | 0.00 | 0.58 | 0.18 | 92 | 1002.8 |
| 20260507125014 | 10 | 319 | 0.0 | 0.0 | 0.00 | 0.61 | 0.18 | 92 | 1002.8 |
| 20260507124512 | 10 | 319 | 0.0 | 0.0 | 0.00 | 0.61 | 0.18 | 92 | 1002.8 |
| 20260507124012 | 10 | 319 | 0.0 | 0.0 | 0.00 | 0.61 | 0.18 | 92 | 1002.7 |
| 20260507123739 | 10 | 319 | 0.0 | 0.0 | 0.00 | 0.61 | 0.18 | 92 | 1002.7 |
| 20260507123008 | 10 | 319 | 0.0 | 0.0 | 0.00 | 0.61 | 0.18 | 92 | 1002.6 |
| 20260507122504 | 10 | 319 | 0.0 | 0.0 | 0.00 | 0.61 | 0.18 | 92 | 1002.7 |
| 20260507122003 | 10 | 319 | 0.0 | 0.0 | 0.00 | 0.61 | 0.18 | 91 | 1002.7 |
| 20260507121502 | 10 | 319 | 0.0 | 1.6 | 0.00 | 0.61 | 0.18 | 92 | 1002.7 |
| 20260507121001 | 10 | 319 | 0.0 | 1.6 | 0.00 | 0.61 | 0.18 | 92 | 1002.6 |
| 20260507120501 | 10 | 61 | 0.0 | 0.0 | 0.00 | 0.61 | 0.18 | 92 | 1002.6 |
| 20260507120233 | 10 | 61 | 0.0 | 0.0 | 0.00 | 0.61 | 0.18 | 93 | 1002.6 |
| 20260507115501 | 10 | 61 | 0.0 | 0.0 | 0.00 | 0.61 | 0.18 | 93 | 1002.6 |
| 20260507115000 | 10 | 61 | 0.0 | 0.0 | 0.00 | 0.61 | 0.18 | 94 | 1002.4 |
| 20260507114458 | 10 | 61 | 0.0 | 0.0 | 0.00 | 0.61 | 0.18 | 94 | 1002.3 |
| 20260507113955 | 10 | 61 | 0.0 | 0.0 | 0.00 | 0.61 | 0.18 | 94 | 1002.3 |
| 20260507113457 | 10 | 61 | 0.0 | 0.0 | 0.00 | 0.61 | 0.18 | 94 | 1002.3 |
| 20260507112957 | 10 | 61 | 0.0 | 0.0 | 0.00 | 0.61 | 0.18 | 94 | 1002.2 |
| 20260507112458 | 10 | 61 | 0.0 | 0.0 | 0.00 | 0.61 | 0.18 | 94 | 1002.2 |
| 20260507112226 | 10 | 61 | 0.0 | 0.0 | 0.00 | 0.61 | 0.18 | 94 | 1002.2 |
| 20260507111457 | 10 | 61 | 0.0 | 0.0 | 0.00 | 0.61 | 0.18 | 94 | 1002.3 |
| 20260507110955 | 10 | 61 | 0.0 | 0.0 | 0.00 | 0.61 | 0.18 | 94 | 1002.3 |
| 20260507110456 | 10 | 61 | 0.0 | 0.0 | 0.00 | 0.61 | 0.18 | 94 | 1002.3 |
| 20260507110000 | 11 | 61 | 0.0 | 0.0 | 0.00 | 0.61 | 0.18 | 94 | 1002.3 |
| 20260507105955 | 10 | 61 | 0.0 | 0.0 | 0.00 | 0.61 | 0.18 | 94 | 1002.3 |
| 20260507104957 | 11 | 61 | 0.0 | 0.0 | 0.00 | 0.61 | 0.18 | 94 | 1002.2 |
| 20260507104456 | 11 | 61 | 0.0 | 0.0 | 0.00 | 0.61 | 0.18 | 94 | 1002.1 |
| 20260507103956 | 11 | 61 | 0.0 | 0.0 | 0.00 | 0.61 | 0.18 | 94 | 1001.9 |
| 20260507103457 | 11 | 61 | 0.0 | 0.0 | 0.00 | 0.61 | 0.18 | 94 | 1001.9 |
| 20260507102956 | 11 | 61 | 0.0 | 0.0 | 0.00 | 0.61 | 0.18 | 94 | 1002.0 |
| 20260507102728 | 11 | 61 | 0.0 | 0.0 | 0.00 | 0.61 | 0.18 | 94 | 1001.9 |
| 20260507101956 | 11 | 61 | 0.0 | 0.0 | 0.00 | 0.61 | 0.18 | 94 | 1001.7 |
| 20260507101450 | 11 | 61 | 0.0 | 0.0 | 0.00 | 0.61 | 0.18 | 94 | 1001.8 |
| 20260507100944 | 11 | 61 | 0.0 | 0.0 | 0.00 | 0.61 | 0.18 | 94 | 1001.6 |
| 20260507100439 | 11 | 61 | 0.0 | 0.0 | 0.00 | 0.61 | 0.18 | 94 | 1001.8 |
| 20260507095932 | 11 | 61 | 0.0 | 0.0 | 0.00 | 0.61 | 0.18 | 94 | 1001.7 |
| 20260507095426 | 11 | 61 | 0.0 | 0.0 | 0.00 | 0.61 | 0.18 | 94 | 1001.6 |
| 20260507094921 | 11 | 61 | 0.0 | 0.0 | 0.00 | 0.61 | 0.18 | 94 | 1001.7 |
| 20260507094413 | 11 | 61 | 0.0 | 0.0 | 0.00 | 0.61 | 0.18 | 94 | 1001.7 |
| 20260507093908 | 11 | 61 | 0.0 | 0.0 | 0.00 | 0.61 | 0.18 | 94 | 1001.6 |
| 20260507093401 | 11 | 61 | 0.0 | 0.0 | 0.00 | 0.61 | 0.18 | 94 | 1001.6 |
| 20260507092856 | 11 | 61 | 0.0 | 0.0 | 0.00 | 0.61 | 0.18 | 94 | 1001.5 |
| 20260507092351 | 11 | 61 | 0.0 | 0.0 | 0.00 | 0.61 | 0.18 | 94 | 1001.5 |
| 20260507091844 | 11 | 61 | 0.0 | 0.0 | 0.00 | 0.61 | 0.18 | 94 | 1001.4 |
| 20260507091610 | 11 | 61 | 0.0 | 0.0 | 0.00 | 0.61 | 0.18 | 94 | 1001.4 |
| 20260507090832 | 11 | 61 | 0.0 | 0.0 | 0.00 | 0.61 | 0.18 | 94 | 1001.4 |
| 20260507090557 | 11 | 61 | 0.0 | 0.0 | 0.00 | 0.61 | 0.18 | 94 | 1001.5 |
| 20260507085819 | 11 | 61 | 0.0 | 0.0 | 0.00 | 0.61 | 0.18 | 94 | 1001.5 |
| 20260507085314 | 11 | 61 | 0.0 | 0.0 | 0.00 | 0.61 | 0.18 | 94 | 1001.6 |
| 20260507085039 | 11 | 61 | 0.0 | 0.0 | 0.00 | 0.61 | 0.18 | 94 | 1001.6 |
| 20260507084534 | 11 | 61 | 0.0 | 0.0 | 0.00 | 0.61 | 0.18 | 94 | 1001.6 |
| 20260507084028 | 11 | 61 | 0.0 | 0.0 | 0.00 | 0.61 | 0.18 | 94 | 1001.4 |
| 20260507083250 | 11 | 61 | 0.0 | 0.0 | 0.00 | 0.61 | 0.18 | 94 | 1001.4 |
| 20260507082744 | 11 | 61 | 0.0 | 0.0 | 0.00 | 0.61 | 0.18 | 94 | 1001.5 |
| 20260507082238 | 11 | 61 | 0.0 | 0.0 | 0.00 | 0.61 | 0.18 | 94 | 1001.3 |
| 20260507081731 | 11 | 61 | 0.0 | 0.0 | 0.00 | 0.61 | 0.18 | 94 | 1001.3 |
| 20260507081226 | 11 | 61 | 0.0 | 0.0 | 0.00 | 0.61 | 0.18 | 94 | 1001.1 |
| 20260507080720 | 11 | 61 | 0.0 | 0.0 | 0.00 | 0.61 | 0.18 | 94 | 1000.8 |
| 20260507080213 | 11 | 61 | 0.0 | 0.0 | 0.00 | 0.61 | 0.18 | 94 | 1000.8 |
| 20260507075707 | 12 | 61 | 0.0 | 0.0 | 0.00 | 0.61 | 0.18 | 94 | 1000.9 |
| 20260507075201 | 12 | 61 | 0.0 | 0.0 | 0.00 | 0.61 | 0.18 | 94 | 1000.8 |
| 20260507074655 | 12 | 61 | 0.0 | 0.0 | 0.00 | 0.61 | 0.18 | 93 | 1000.9 |
| 20260507074151 | 12 | 61 | 0.0 | 0.0 | 0.00 | 0.61 | 0.18 | 94 | 1000.7 |
| 20260507073643 | 12 | 61 | 0.0 | 0.0 | 0.00 | 0.61 | 0.18 | 93 | 1000.8 |
| 20260507073138 | 12 | 61 | 0.0 | 0.0 | 0.03 | 0.61 | 0.18 | 93 | 1000.6 |
| 20260507072631 | 12 | 61 | 0.0 | 0.0 | 0.03 | 0.61 | 0.18 | 93 | 1000.6 |
| 20260507072125 | 12 | 61 | 0.0 | 0.0 | 0.03 | 0.61 | 0.18 | 93 | 1000.6 |
| 20260507071620 | 12 | 61 | 0.0 | 0.0 | 0.03 | 0.61 | 0.18 | 93 | 1000.8 |
| 20260507071114 | 12 | 61 | 0.0 | 0.0 | 0.03 | 0.61 | 0.18 | 93 | 1000.8 |
| 20260507070608 | 12 | 61 | 0.0 | 0.0 | 0.03 | 0.61 | 0.18 | 93 | 1000.6 |
| 20260507065556 | 12 | 61 | 0.0 | 0.0 | 0.03 | 0.61 | 0.18 | 93 | 1000.7 |
| 20260507065049 | 12 | 61 | 0.0 | 0.0 | 0.03 | 0.61 | 0.18 | 93 | 1000.7 |
| 20260507064544 | 12 | 61 | 0.0 | 0.0 | 0.03 | 0.61 | 0.18 | 93 | 1000.9 |
| 20260507064038 | 12 | 61 | 0.0 | 0.0 | 0.03 | 0.61 | 0.18 | 93 | 1000.9 |
| 20260507063532 | 12 | 61 | 0.0 | 0.0 | 0.03 | 0.61 | 0.18 | 93 | 1000.7 |
| 20260507063026 | 12 | 61 | 0.0 | 0.0 | 0.00 | 0.58 | 0.15 | 93 | 1000.9 |
| 20260507062520 | 12 | 61 | 0.0 | 0.0 | 0.00 | 0.58 | 0.15 | 93 | 1000.9 |
| 20260507062014 | 12 | 61 | 0.0 | 0.0 | 0.00 | 0.58 | 0.15 | 93 | 1001.0 |
| 20260507061507 | 12 | 61 | 0.0 | 0.0 | 0.00 | 0.58 | 0.15 | 93 | 1000.5 |
| 20260507061233 | 12 | 61 | 0.0 | 0.0 | 0.03 | 0.58 | 0.15 | 93 | 1000.6 |
| 20260507060728 | 12 | 61 | 0.0 | 0.0 | 0.03 | 0.58 | 0.15 | 93 | 1000.7 |
| 20260507055950 | 13 | 61 | 0.0 | 0.0 | 0.03 | 0.58 | 0.15 | 93 | 1000.7 |
| 20260507055445 | 13 | 61 | 0.0 | 0.0 | 0.03 | 0.58 | 0.15 | 93 | 1001.1 |
| 20260507054938 | 13 | 61 | 0.0 | 0.0 | 0.05 | 0.58 | 0.15 | 93 | 1000.8 |
| 20260507054432 | 13 | 61 | 0.0 | 0.0 | 0.13 | 0.58 | 0.15 | 92 | 1000.7 |
| 20260507053926 | 13 | 61 | 0.0 | 0.0 | 0.15 | 0.58 | 0.15 | 92 | 1000.9 |
| 20260507053421 | 13 | 61 | 0.0 | 1.6 | 0.15 | 0.58 | 0.15 | 92 | 1000.9 |
| 20260507052913 | 13 | 61 | 0.0 | 1.6 | 0.15 | 0.58 | 0.15 | 92 | 1001.0 |
| 20260507052408 | 13 | 61 | 0.0 | 1.6 | 0.15 | 0.58 | 0.15 | 91 | 1000.8 |
| 20260507051904 | 13 | 61 | 0.0 | 1.6 | 0.15 | 0.58 | 0.15 | 91 | 1000.8 |
| 20260507051858 | 13 | 61 | 0.0 | 1.6 | 0.15 | 0.58 | 0.15 | 91 | 1000.8 |
| 20260507050850 | 13 | 61 | 0.0 | 0.0 | 0.13 | 0.56 | 0.13 | 90 | 1000.6 |
| 20260507050345 | 13 | 61 | 0.0 | 3.2 | 0.13 | 0.56 | 0.13 | 89 | 1000.8 |
| 20260507045838 | 13 | 61 | 0.0 | 3.2 | 0.13 | 0.56 | 0.13 | 89 | 1000.8 |
| 20260507045331 | 14 | 61 | 0.0 | 3.2 | 0.13 | 0.56 | 0.13 | 88 | 1001.1 |
| 20260507044827 | 14 | 61 | 0.0 | 3.2 | 0.10 | 0.53 | 0.10 | 87 | 1001.4 |
| 20260507044321 | 15 | 61 | 0.0 | 3.2 | 0.00 | 0.43 | 0.00 | 86 | 1001.1 |
| 20260507043814 | 15 | 61 | 0.0 | 3.2 | 0.00 | 0.43 | 0.00 | 84 | 1001.1 |
| 20260507043308 | 15 | 61 | 1.6 | 6.4 | 0.00 | 0.43 | 0.00 | 81 | 1000.7 |
| 20260507043303 | 15 | 59 | 1.6 | 8.0 | 0.00 | 0.43 | 0.00 | 81 | 1000.6 |
| 20260507042255 | 15 | 18 | 1.6 | 8.0 | 0.00 | 0.43 | 0.00 | 81 | 1000.9 |
| 20260507042024 | 15 | 11 | 1.6 | 3.2 | 0.00 | 0.43 | 0.00 | 81 | 1000.9 |
| 20260507041253 | 16 | 11 | 1.6 | 3.2 | 0.00 | 0.43 | 0.00 | 81 | 1001.2 |
| 20260507040752 | 16 | 11 | 0.0 | 3.2 | 0.00 | 0.43 | 0.00 | 81 | 1001.1 |
| 20260507040254 | 16 | 11 | 0.0 | 3.2 | 0.00 | 0.43 | 0.00 | 81 | 1000.6 |
| 20260507040024 | 16 | 11 | 0.0 | 3.2 | 0.00 | 0.43 | 0.43 | 81 | 1000.6 |
| 20260507035254 | 16 | 11 | 0.0 | 1.6 | 0.00 | 0.43 | 0.43 | 82 | 1000.5 |
| 20260507034754 | 16 | 11 | 0.0 | 1.6 | 0.00 | 0.43 | 0.43 | 82 | 1000.3 |
| 20260507034523 | 16 | 11 | 0.0 | 1.6 | 0.00 | 0.43 | 0.43 | 82 | 1000.1 |
| 20260507033755 | 16 | 11 | 0.0 | 3.2 | 0.00 | 0.43 | 0.43 | 81 | 1000.1 |
| 20260507033252 | 16 | 11 | 0.0 | 3.2 | 0.00 | 0.43 | 0.43 | 80 | 1000.4 |
| 20260507032752 | 16 | 11 | 0.0 | 4.8 | 0.00 | 0.43 | 0.43 | 80 | 1000.5 |
| 20260507032254 | 16 | 11 | 0.0 | 4.8 | 0.00 | 0.43 | 0.43 | 79 | 1000.2 |
| 20260507031754 | 16 | 28 | 1.6 | 4.8 | 0.00 | 0.43 | 0.43 | 79 | 1000.4 |
| 20260507031254 | 16 | 28 | 1.6 | 3.2 | 0.00 | 0.43 | 0.43 | 79 | 1000.5 |
| 20260507030753 | 16 | 26 | 1.6 | 3.2 | 0.00 | 0.43 | 0.43 | 79 | 1000.2 |
| 20260507030253 | 17 | 26 | 1.6 | 3.2 | 0.00 | 0.43 | 0.43 | 80 | 1000.2 |
| 20260507030025 | 17 | 5 | 1.6 | 4.8 | 0.00 | 0.43 | 0.43 | 80 | 1000.0 |
| 20260507025251 | 17 | 5 | 1.6 | 4.8 | 0.00 | 0.43 | 0.43 | 79 | 999.7 |
| 20260507024746 | 17 | 57 | 0.0 | 3.2 | 0.00 | 0.43 | 0.43 | 79 | 999.6 |
| 20260507024239 | 17 | 57 | 0.0 | 3.2 | 0.00 | 0.43 | 0.43 | 79 | 999.9 |
| 20260507023732 | 17 | 57 | 0.0 | 3.2 | 0.00 | 0.43 | 0.43 | 79 | 999.9 |
| 20260507023457 | 17 | 57 | 1.6 | 3.2 | 0.00 | 0.43 | 0.43 | 79 | 999.9 |
| 20260507022721 | 17 | 57 | 1.6 | 8.0 | 0.00 | 0.43 | 0.43 | 79 | 999.6 |
| 20260507022215 | 17 | 65 | 1.6 | 8.0 | 0.00 | 0.43 | 0.43 | 79 | 999.6 |
| 20260507021710 | 17 | 66 | 1.6 | 4.8 | 0.00 | 0.43 | 0.43 | 80 | 999.6 |
| 20260507021705 | 17 | 32 | 0.0 | 3.2 | 0.00 | 0.43 | 0.43 | 81 | 999.8 |
| 20260507020658 | 18 | 32 | 1.6 | 4.8 | 0.00 | 0.43 | 0.43 | 81 | 999.7 |
| 20260507020152 | 18 | 32 | 1.6 | 4.8 | 0.00 | 0.43 | 0.43 | 82 | 999.4 |
| 20260507015646 | 18 | 32 | 1.6 | 4.8 | 0.00 | 0.43 | 0.43 | 82 | 999.3 |
| 20260507015138 | 18 | 16 | 1.6 | 3.2 | 0.00 | 0.43 | 0.43 | 82 | 999.2 |
| 20260507014633 | 18 | 35 | 0.0 | 4.8 | 0.00 | 0.43 | 0.43 | 83 | 999.2 |
| 20260507014127 | 18 | 35 | 1.6 | 3.2 | 0.00 | 0.43 | 0.43 | 82 | 999.3 |
| 20260507013620 | 18 | 35 | 1.6 | 4.8 | 0.00 | 0.43 | 0.43 | 82 | 999.3 |
| 20260507013115 | 18 | 37 | 1.6 | 4.8 | 0.00 | 0.43 | 0.43 | 82 | 999.5 |
| 20260507012608 | 18 | 38 | 1.6 | 4.8 | 0.00 | 0.43 | 0.43 | 83 | 999.6 |
| 20260507012103 | 19 | 30 | 1.6 | 4.8 | 0.00 | 0.43 | 0.43 | 83 | 999.7 |
| 20260507011557 | 19 | 15 | 1.6 | 6.4 | 0.00 | 0.43 | 0.43 | 84 | 999.5 |
| 20260507011051 | 19 | 15 | 1.6 | 6.4 | 0.00 | 0.43 | 0.43 | 84 | 999.4 |
| 20260507010546 | 19 | 19 | 0.0 | 3.2 | 0.00 | 0.43 | 0.43 | 85 | 999.4 |
| 20260507010309 | 19 | 19 | 0.0 | 3.2 | 0.00 | 0.43 | 0.43 | 85 | 999.3 |
| 20260507005533 | 19 | 19 | 1.6 | 4.8 | 0.00 | 0.43 | 0.43 | 85 | 999.3 |
| 20260507005026 | 19 | 320 | 0.0 | 4.8 | 0.00 | 0.43 | 0.43 | 87 | 999.5 |
| 20260507004522 | 20 | 225 | 0.0 | 0.0 | 0.00 | 0.43 | 0.43 | 87 | 999.2 |
| 20260507004014 | 20 | 225 | 0.0 | 0.0 | 0.00 | 0.43 | 0.43 | 86 | 999.2 |
| 20260507003509 | 20 | 225 | 0.0 | 0.0 | 0.00 | 0.43 | 0.43 | 86 | 999.0 |
| 20260507003002 | 20 | 225 | 0.0 | 0.0 | 0.00 | 0.43 | 0.43 | 86 | 998.8 |
| 20260507002728 | 20 | 225 | 0.0 | 0.0 | 0.00 | 0.43 | 0.43 | 85 | 998.9 |
| 20260507001952 | 20 | 225 | 0.0 | 0.0 | 0.00 | 0.43 | 0.43 | 85 | 998.9 |
| 20260507001445 | 20 | 225 | 0.0 | 0.0 | 0.00 | 0.43 | 0.43 | 84 | 998.8 |
| 20260507001211 | 20 | 225 | 0.0 | 0.0 | 0.00 | 0.43 | 0.43 | 84 | 998.6 |
| 20260507000435 | 20 | 225 | 0.0 | 0.0 | 0.00 | 0.43 | 0.43 | 83 | 998.4 |
| 20260506235926 | 20 | 225 | 0.0 | 0.0 | 0.00 | 0.43 | 0.43 | 83 | 998.4 |
| 20260506235420 | 20 | 225 | 0.0 | 0.0 | 0.00 | 0.43 | 0.43 | 83 | 998.6 |
| 20260506234915 | 20 | 225 | 0.0 | 3.2 | 0.00 | 0.43 | 0.43 | 82 | 998.5 |
| 20260506234640 | 20 | 225 | 0.0 | 3.2 | 0.00 | 0.43 | 0.43 | 82 | 998.4 |
| 20260506233903 | 20 | 202 | 0.0 | 1.6 | 0.00 | 0.43 | 0.43 | 82 | 998.4 |
| 20260506233357 | 20 | 202 | 0.0 | 1.6 | 0.00 | 0.43 | 0.43 | 82 | 998.3 |
| 20260506232850 | 20 | 202 | 1.6 | 4.8 | 0.00 | 0.43 | 0.43 | 81 | 998.1 |
| 20260506232346 | 20 | 202 | 0.0 | 4.8 | 0.00 | 0.43 | 0.43 | 81 | 998.2 |
| 20260506231838 | 20 | 202 | 0.0 | 1.6 | 0.00 | 0.43 | 0.43 | 81 | 998.1 |
| 20260506231333 | 20 | 202 | 1.6 | 4.8 | 0.00 | 0.43 | 0.43 | 81 | 998.1 |
| 20260506230827 | 20 | 202 | 1.6 | 4.8 | 0.00 | 0.43 | 0.43 | 80 | 997.9 |
| 20260506230322 | 20 | 202 | 1.6 | 4.8 | 0.00 | 0.43 | 0.43 | 80 | 997.8 |
| 20260506225816 | 20 | 202 | 1.6 | 8.0 | 0.00 | 0.43 | 0.43 | 80 | 997.8 |
| 20260506225540 | 20 | 202 | 1.6 | 8.0 | 0.00 | 0.43 | 0.43 | 80 | 997.9 |
| 20260506224803 | 20 | 171 | 1.6 | 8.0 | 0.00 | 0.43 | 0.43 | 81 | 997.8 |
| 20260506224529 | 20 | 171 | 1.6 | 8.0 | 0.00 | 0.43 | 0.43 | 81 | 997.8 |
| 20260506223751 | 20 | 145 | 1.6 | 4.8 | 0.00 | 0.43 | 0.43 | 81 | 997.7 |
| 20260506223515 | 20 | 145 | 1.6 | 4.8 | 0.00 | 0.43 | 0.43 | 80 | 997.8 |
| 20260506222739 | 21 | 145 | 1.6 | 4.8 | 0.00 | 0.43 | 0.43 | 80 | 997.8 |
| 20260506222236 | 21 | 145 | 1.6 | 4.8 | 0.00 | 0.43 | 0.43 | 80 | 997.8 |
| 20260506221735 | 21 | 202 | 1.6 | 4.8 | 0.00 | 0.43 | 0.43 | 80 | 997.7 |
| 20260506221234 | 21 | 202 | 1.6 | 6.4 | 0.00 | 0.43 | 0.43 | 80 | 997.7 |
| 20260506220736 | 21 | 209 | 1.6 | 9.7 | 0.00 | 0.43 | 0.43 | 80 | 997.7 |
| 20260506220235 | 21 | 209 | 3.2 | 9.7 | 0.00 | 0.43 | 0.43 | 80 | 997.7 |
| 20260506215734 | 21 | 218 | 3.2 | 9.7 | 0.00 | 0.43 | 0.43 | 80 | 997.6 |
| 20260506215236 | 21 | 218 | 3.2 | 9.7 | 0.00 | 0.43 | 0.43 | 80 | 997.6 |
| 20260506214733 | 21 | 207 | 3.2 | 11.3 | 0.00 | 0.43 | 0.43 | 80 | 997.7 |
| 20260506214501 | 21 | 215 | 1.6 | 11.3 | 0.00 | 0.43 | 0.43 | 80 | 997.7 |
| 20260506213732 | 21 | 148 | 1.6 | 4.8 | 0.00 | 0.43 | 0.43 | 82 | 997.6 |
| 20260506213231 | 21 | 148 | 1.6 | 4.8 | 0.00 | 0.43 | 0.43 | 81 | 997.7 |
| 20260506212730 | 21 | 190 | 1.6 | 4.8 | 0.00 | 0.43 | 0.43 | 82 | 997.5 |
| 20260506212229 | 21 | 190 | 3.2 | 8.0 | 0.00 | 0.43 | 0.43 | 81 | 997.5 |
| 20260506211730 | 21 | 164 | 3.2 | 8.0 | 0.00 | 0.43 | 0.43 | 80 | 997.4 |
| 20260506211230 | 21 | 211 | 3.2 | 8.0 | 0.00 | 0.43 | 0.43 | 80 | 997.5 |
| 20260506210731 | 21 | 161 | 3.2 | 9.7 | 0.00 | 0.43 | 0.43 | 81 | 997.3 |
| 20260506210231 | 21 | 202 | 3.2 | 9.7 | 0.00 | 0.43 | 0.43 | 80 | 997.4 |
| 20260506205732 | 20 | 211 | 3.2 | 9.7 | 0.00 | 0.43 | 0.43 | 80 | 997.2 |
| 20260506205728 | 21 | 215 | 3.2 | 9.7 | 0.00 | 0.43 | 0.43 | 81 | 997.4 |